[[{"header":{"parameterUnit":"m.s-1","parameterCategory":2,"la1":30.2991,"la2":30.254,"lo1":-89.0895,"lo2":-89.0444,"dy":0.0017,"dx":0.0017,"nx":28,"ny":28,"refTime":"2024-07-04T03:00:00:Z","depth":"0","parameterNumber":2,"parameterNumberName":"U-component_of_CURRENTS"},"data":[0,0,0,0,0,0,0,0,0,0,0,0,0,0,0,0,0,0,0,0,0,0,0,0,0,0,0,0,0,0,0,0,0,0,0,0,0,0,0,0,0,0,0,0,0,0,0,0,0,0,0,0,0,0,0,0,0,0,0.2198,0.2198,0,0.218,0.218,0.2179,0.216,0.216,0.216,0.216,0.2138,0.2138,0.2137,0,0,0,0,0,0,0,0,0,0,0,0,0,0.2221,0.222,0.2198,0.2198,0.2198,0.218,0.218,0.2179,0.216,0.216,0.216,0.216,0.2138,0.2138,0.2137,0,0,0,0,0,0,0,0,0,0,0,0,0,0.2205,0.222,0.2198,0.2188,0.2187,0.218,0.218,0.2179,0.216,0.216,0.216,0.216,0.2139,0.2138,0.2137,0.2133,0,0,0.2134,0.2134,0,0,0,0,0,0,0,0,0.2206,0.2204,0.219,0.2189,0.2188,0.2175,0.218,0.2164,0.216,0.2168,0.216,0.216,0.2152,0.215,0.2143,0.2132,0.2131,0.2134,0.2134,0.2134,0.2133,0,0,0,0,0,0,0,0.2207,0.2205,0.2188,0.219,0.2189,0.2187,0.2184,0.2177,0.2158,0.2167,0.2166,0.2169,0.2151,0.2144,0.2142,0.213,0.2134,0.2134,0.2133,0.2133,0.2196,0.2198,0,0,0,0,0,0,0.2215,0.2206,0.2189,0.2188,0.22,0.2187,0.2184,0.2177,0.2158,0.2156,0.2169,0.2168,0.2145,0.2143,0.2141,0.2181,0.2134,0.2133,0.2132,0.2194,0.2196,0.2198,0,0,0,0,0,0,0.2215,0.2213,0.2189,0.2199,0.2197,0.2187,0.2179,0.2177,0.2176,0.216,0.2157,0.2171,0.2145,0.2143,0.2146,0.2178,0.2132,0.2132,0.2191,0.2194,0.2197,0.2231,0,0,0,0,0,0,0.2216,0.2213,0.2211,0.2199,0.2196,0.2196,0.2179,0.2176,0.2178,0.2177,0.2161,0.2159,0.2145,0.2147,0.2145,0.2176,0.2131,0.2188,0.2192,0.2196,0.2227,0.2235,0.2241,0,0,0,0,0,0.2216,0.2215,0.2211,0.221,0.2194,0.2197,0.2195,0.2186,0.2178,0.2184,0.2174,0.216,0.2173,0.2147,0.2144,0.2176,0.2186,0.2191,0.2196,0.2224,0.2233,0.2241,0,0,0,0,0,0,0.2224,0.2213,0.2208,0.2204,0.2206,0.2195,0.2197,0.2192,0.2187,0.2184,0.2167,0.2165,0.219,0.218,0.2153,0.2213,0.2185,0.219,0.2208,0.2217,0.2224,0.2257,0.213,0,0,0,0,0,0.2226,0.222,0.2217,0.2214,0.2216,0.2208,0.2208,0.2204,0.2198,0.2195,0.2185,0.2189,0.2207,0.2207,0.2216,0.2229,0.2245,0.2258,0.2266,0.2272,0.2301,0.2371,0.2387,0.2214,0.2214,0.2214,0,0,0.2227,0.2222,0.2217,0.2215,0.2212,0.2217,0.2207,0.2211,0.2219,0.2194,0.2199,0.221,0.2219,0.2245,0.2256,0.2237,0.2319,0.2278,0.2282,0.2309,0.2378,0.2395,0.2409,0.2218,0.2217,0.2217,0,0,0.2228,0.2223,0.222,0.2224,0.2228,0.2227,0.2232,0.2228,0.2234,0.2238,0.2243,0.2282,0.2269,0.2307,0.232,0.2377,0.2361,0.2373,0.2426,0.2492,0.2507,0.252,0.2514,0.2527,0.237,0.2371,0.2371,0,0.2232,0.2221,0.2223,0.2226,0.2228,0.2234,0.2237,0.2248,0.2246,0.2268,0.2245,0.231,0.2313,0.2387,0.2409,0.2396,0.2401,0.2382,0.2501,0.2515,0.2528,0.2519,0.2533,0.2373,0.2372,0.2372,0.2372,0,0.2229,0.2225,0.2227,0.2228,0.2238,0.2241,0.2259,0.2276,0.228,0.2298,0.2367,0.2387,0.2434,0.2447,0.2437,0.2543,0.2502,0.2503,0.2474,0.2548,0.2532,0.2546,0.2376,0.2375,0.2374,0.2374,0,0,0.2222,0.2223,0.2223,0.2222,0.2236,0.2243,0.2275,0.2313,0.2355,0.2377,0.2444,0.25,0.2532,0.2555,0.2571,0.2632,0.2707,0.2604,0.2606,0.2587,0.2801,0.2649,0.2649,0.2721,0.2725,0.2728,0.2734,0,0.2216,0.2214,0.222,0.2226,0.2226,0.2252,0.2287,0.2331,0.2372,0.2441,0.2513,0.2579,0.2566,0.2603,0.2667,0.2714,0.2752,0.2702,0.2743,0.2743,0.2594,0.2665,0.2649,0.2644,0.2747,0.2749,0.2751,0,0.2207,0.2206,0.2204,0.2227,0.2233,0.2246,0.2313,0.2349,0.246,0.2501,0.2596,0.2646,0.2759,0.2736,0.285,0.2811,0.2815,0.2836,0.2837,0.2705,0.262,0.26,0.2665,0.2645,0.2771,0.277,0.2768,0,0.219,0.2196,0.2191,0.2194,0.2226,0.2246,0.2277,0.237,0.2424,0.256,0.2618,0.2743,0.2805,0.2875,0.2894,0.2885,0.2991,0.298,0.2842,0.2828,0.2832,0.2811,0.2883,0.3067,0.3067,0.3067,0.3067,0,0.2175,0.2172,0.2181,0.2179,0.22,0.2236,0.2294,0.2355,0.2469,0.2547,0.2655,0.2733,0.2848,0.2906,0.2927,0.2906,0.301,0.2871,0.2843,0.2833,0.2813,0.2806,0.2755,0.3067,0.3067,0.3067,0.3067,0,0.2153,0.2156,0.2152,0.2176,0.2187,0.2207,0.228,0.2336,0.2446,0.2555,0.2603,0.274,0.2798,0.2859,0.295,0.2915,0.2847,0.2893,0.2825,0.2788,0.2609,0.2558,0.235,0.2323,0.2759,0.2755,0.2752,0,0.2137,0.2131,0.2139,0.2141,0.2147,0.2182,0.2217,0.2316,0.2376,0.2543,0.2591,0.2686,0.2737,0.2782,0.2777,0.2769,0.2702,0.2698,0.2691,0.261,0.2537,0.2335,0.2317,0.2699,0.2696,0.2694,0.2692,0,0.211,0.2112,0.211,0.2114,0.2128,0.2151,0.2202,0.2241,0.2366,0.2449,0.2543,0.2606,0.2652,0.265,0.2612,0.2604,0.2568,0.2636,0.2636,0.2559,0.2272,0.2229,0.2627,0.267,0.2672,0.2674,0.2675,0.2676,0.209,0.2083,0.2083,0.208,0.2093,0.2106,0.2112,0.2169,0.2236,0.2334,0.2428,0.2486,0.2578,0.2534,0.2487,0.2423,0.2338,0.2404,0.2364,0.2177,0.2106,0.2383,0.2331,0.2331,0.2331,0.2332,0.2332,0,0.2059,0.2055,0.2052,0.204,0.2027,0.2057,0.209,0.2081,0.2104,0.2218,0.2273,0.237,0.2363,0.2394,0.2376,0.2261,0.2154,0.2173,0.2013,0.2032,0.2408,0.2369,0.2223,0.2223,0.2223,0.2223,0.2223,0.2223,0.2044,0.2026,0.2019,0.1973,0.1964,0.1944,0.1946,0.1931,0.1983,0.2032,0.2096,0.2163,0.2282,0.2284,0.2203,0.2134,0.1999,0.1775,0.1767,0.2184,0.2207,0.2229,0.219,0.2008,0.2007,0.1397,0.1392,0.1388]},{"header":{"parameterUnit":"m.s-1","parameterCategory":2,"la1":30.2991,"la2":30.254,"lo1":-89.0895,"lo2":-89.0444,"dy":0.0017,"dx":0.0017,"nx":28,"ny":28,"refTime":"2024-07-04T03:00:00:Z","depth":"0","parameterNumber":3,"parameterNumberName":"V-component_of_CURRENTS"},"data":[0,0,0,0,0,0,0,0,0,0,0,0,0,0,0,0,0,0,0,0,0,0,0,0,0,0,0,0,0,0,0,0,0,0,0,0,0,0,0,0,0,0,0,0,0,0,0,0,0,0,0,0,0,0,0,0,0,0,0.033,0.033,0,0.0321,0.0321,0.032,0.0311,0.0311,0.0311,0.0311,0.0288,0.0288,0.0287,0,0,0,0,0,0,0,0,0,0,0,0,0,0.031,0.0311,0.033,0.033,0.0329,0.0321,0.0321,0.032,0.0311,0.0311,0.0311,0.0311,0.0289,0.0288,0.0287,0,0,0,0,0,0,0,0,0,0,0,0,0,0.0311,0.0311,0.033,0.0324,0.0324,0.0321,0.0321,0.032,0.0311,0.0311,0.0311,0.0311,0.0289,0.0288,0.0287,0.0284,0,0,0.0285,0.0284,0,0,0,0,0,0,0,0,0.0311,0.0312,0.0325,0.0325,0.0324,0.0318,0.0306,0.0308,0.0311,0.0315,0.0311,0.0311,0.0297,0.0296,0.0294,0.0283,0.0282,0.0285,0.0284,0.0284,0.0284,0,0,0,0,0,0,0,0.0311,0.0312,0.0326,0.0325,0.0324,0.0313,0.0313,0.0306,0.0306,0.0315,0.0315,0.0315,0.0297,0.0295,0.0293,0.0282,0.0285,0.0284,0.0283,0.0283,0.0295,0.0296,0,0,0,0,0,0,0.0315,0.0312,0.0326,0.0325,0.0318,0.0313,0.0314,0.0319,0.0307,0.0305,0.0315,0.0314,0.0296,0.0294,0.0292,0.0312,0.0284,0.0283,0.0283,0.0294,0.0295,0.0296,0,0,0,0,0,0,0.0315,0.0317,0.0326,0.0319,0.0319,0.0314,0.032,0.0319,0.0318,0.0307,0.0305,0.0315,0.0296,0.0293,0.0291,0.031,0.0283,0.0282,0.0293,0.0295,0.0296,0.0335,0,0,0,0,0,0,0.0315,0.0317,0.0321,0.0319,0.032,0.033,0.0321,0.0319,0.0318,0.0318,0.0306,0.0304,0.0296,0.0292,0.029,0.0308,0.0281,0.0292,0.0294,0.0295,0.0333,0.0338,0.0342,0,0,0,0,0,0.0314,0.0324,0.0321,0.0323,0.0326,0.0331,0.033,0.0325,0.0318,0.0322,0.0314,0.0304,0.0301,0.0292,0.0289,0.0308,0.0292,0.0294,0.0295,0.0331,0.0337,0.0342,0,0,0,0,0,0,0.0316,0.0324,0.0321,0.0332,0.0333,0.0329,0.0333,0.0327,0.0323,0.0322,0.0308,0.0305,0.0312,0.0303,0.0294,0.0317,0.0297,0.0299,0.0325,0.0331,0.0335,0.036,0.0281,0,0,0,0,0,0.0319,0.033,0.0331,0.034,0.0342,0.0336,0.0336,0.0334,0.0331,0.0329,0.032,0.0316,0.0318,0.0318,0.0315,0.0322,0.0322,0.0335,0.0339,0.0343,0.0362,0.0382,0.039,0.0302,0.0302,0.0302,0,0,0.0321,0.0327,0.0333,0.0341,0.0341,0.0352,0.0336,0.0342,0.0352,0.0327,0.0335,0.0327,0.0322,0.0334,0.0337,0.0329,0.0363,0.0345,0.0349,0.0366,0.0385,0.0393,0.0401,0.0303,0.0303,0.0303,0,0,0.0336,0.0338,0.0354,0.0358,0.0364,0.0364,0.0366,0.0365,0.0365,0.0369,0.036,0.0369,0.0358,0.037,0.0372,0.04,0.0384,0.0393,0.0437,0.0456,0.0464,0.047,0.0461,0.0467,0.0398,0.0398,0.0398,0,0.0338,0.036,0.0358,0.0374,0.0384,0.0372,0.0391,0.0389,0.0387,0.0399,0.0377,0.0397,0.0383,0.0422,0.0427,0.0412,0.0408,0.0416,0.0462,0.0469,0.0476,0.0465,0.0471,0.04,0.04,0.0399,0.0399,0,0.0366,0.0383,0.0393,0.0413,0.0421,0.0436,0.0437,0.0444,0.0438,0.0444,0.0472,0.046,0.048,0.0472,0.0453,0.0498,0.0473,0.0463,0.045,0.0487,0.0472,0.0478,0.0403,0.0402,0.0401,0.0401,0,0,0.0377,0.0408,0.0412,0.0433,0.0446,0.046,0.0478,0.0503,0.0535,0.0525,0.0573,0.0566,0.0569,0.0573,0.0559,0.0569,0.059,0.0534,0.0534,0.0527,0.0611,0.0587,0.0589,0.0584,0.0586,0.0587,0.0576,0,0.0402,0.0445,0.0453,0.0494,0.0518,0.052,0.0547,0.0567,0.0579,0.0619,0.0622,0.0658,0.0605,0.0625,0.0627,0.0608,0.0609,0.0593,0.0576,0.0575,0.0551,0.0598,0.0661,0.0656,0.0581,0.0582,0.0582,0,0.043,0.0458,0.0504,0.0552,0.0565,0.0586,0.0641,0.0664,0.071,0.0726,0.076,0.0762,0.0786,0.0736,0.0724,0.0713,0.0669,0.0642,0.0641,0.0615,0.0563,0.0611,0.0669,0.0682,0.059,0.059,0.0589,0,0.0451,0.0497,0.0539,0.0552,0.06,0.0625,0.0653,0.0699,0.0751,0.0806,0.0859,0.0869,0.0894,0.0853,0.0778,0.0759,0.0754,0.0722,0.0657,0.0653,0.0705,0.0704,0.0781,0.0721,0.0721,0.0721,0.0721,0,0.048,0.0514,0.0552,0.0576,0.064,0.0659,0.0738,0.0767,0.0846,0.0939,0.0925,0.0997,0.0925,0.0908,0.0825,0.0758,0.0789,0.0683,0.0664,0.0717,0.0716,0.0726,0.0705,0.072,0.072,0.072,0.072,0,0.0498,0.0521,0.0574,0.0629,0.0653,0.0698,0.0796,0.0865,0.0922,0.1047,0.1078,0.1103,0.1074,0.0982,0.0912,0.0827,0.0776,0.0722,0.0771,0.0757,0.0706,0.0684,0.0684,0.077,0.0667,0.0666,0.0666,0,0.0511,0.0539,0.0611,0.0654,0.0681,0.0754,0.0823,0.0898,0.0988,0.1121,0.1197,0.12,0.1229,0.1097,0.0948,0.0811,0.0782,0.076,0.0741,0.0735,0.0696,0.065,0.0722,0.0814,0.0815,0.0816,0.0816,0,0.0536,0.0559,0.0606,0.0696,0.0768,0.0861,0.0964,0.1054,0.117,0.1288,0.1419,0.1451,0.1322,0.1231,0.1014,0.0901,0.0812,0.0768,0.0778,0.084,0.0784,0.0848,0.0761,0.0823,0.0822,0.0822,0.0821,0.0821,0.0554,0.0592,0.0658,0.0745,0.0834,0.0966,0.1074,0.1209,0.1379,0.1583,0.158,0.1688,0.1541,0.1264,0.1087,0.0874,0.0851,0.0833,0.0809,0.0764,0.0854,0.0759,0.0785,0.0784,0.0783,0.0783,0.0782,0,0.058,0.063,0.0709,0.0823,0.0931,0.0979,0.1175,0.1316,0.154,0.1733,0.1857,0.1939,0.1703,0.1458,0.1145,0.0986,0.0947,0.0899,0.0893,0.0974,0.0919,0.0935,0.0978,0.0978,0.0978,0.0978,0.0978,0.0978,0.0596,0.0671,0.0716,0.0884,0.0976,0.1167,0.1297,0.1522,0.1723,0.2045,0.2223,0.2319,0.2264,0.1517,0.1154,0.1053,0.105,0.0928,0.0965,0.0947,0.0941,0.0935,0.095,0.0994,0.0994,0.1096,0.1096,0.1097]}],[{"header":{"parameterUnit":"m.s-1","parameterCategory":2,"la1":30.2991,"la2":30.254,"lo1":-89.0895,"lo2":-89.0444,"dy":0.0017,"dx":0.0017,"nx":28,"ny":28,"refTime":"2024-07-04T03:00:00:Z","depth":"2","parameterNumber":2,"parameterNumberName":"U-component_of_CURRENTS"},"data":[0,0,0,0,0,0,0,0,0,0,0,0,0,0,0,0,0,0,0,0,0,0,0,0,0,0,0,0,0,0,0,0,0,0,0,0,0,0,0,0,0,0,0,0,0,0,0,0,0,0,0,0,0,0,0,0,0,0,0.2114,0.2114,0,0.2097,0.2096,0.2096,0.208,0.208,0.208,0.208,0.206,0.2059,0.2058,0,0,0,0,0,0,0,0,0,0,0,0,0,0.2136,0.2135,0.2114,0.2114,0.2114,0.2097,0.2096,0.2096,0.208,0.208,0.208,0.208,0.206,0.2059,0.2058,0,0,0,0,0,0,0,0,0,0,0,0,0,0.2121,0.2135,0.2114,0.2106,0.2105,0.2097,0.2096,0.2096,0.208,0.208,0.208,0.208,0.206,0.2059,0.2058,0.2051,0,0,0.2056,0.2055,0,0,0,0,0,0,0,0,0.2122,0.212,0.2107,0.2106,0.2105,0.2093,0.2097,0.2082,0.208,0.2086,0.208,0.208,0.2072,0.207,0.2063,0.2051,0.205,0.2055,0.2055,0.2055,0.2054,0,0,0,0,0,0,0,0.2123,0.212,0.2104,0.2107,0.2106,0.2105,0.2102,0.2094,0.2077,0.2086,0.2085,0.2088,0.2071,0.2064,0.2063,0.2049,0.2056,0.2055,0.2054,0.2054,0.2114,0.2116,0,0,0,0,0,0,0.213,0.2121,0.2105,0.2104,0.2117,0.2104,0.2101,0.2095,0.2077,0.2075,0.2088,0.2087,0.2065,0.2064,0.2062,0.2102,0.2055,0.2054,0.2053,0.2112,0.2115,0.2117,0,0,0,0,0,0,0.213,0.2128,0.2105,0.2115,0.2112,0.2104,0.2096,0.2094,0.2095,0.2079,0.2077,0.2092,0.2065,0.2063,0.2067,0.2099,0.2053,0.2053,0.211,0.2113,0.2116,0.215,0,0,0,0,0,0,0.2131,0.2128,0.2128,0.2115,0.2112,0.2112,0.2097,0.2094,0.2097,0.2096,0.2082,0.2079,0.2065,0.2068,0.2066,0.2097,0.2052,0.2107,0.2111,0.2115,0.2146,0.2154,0.2161,0,0,0,0,0,0.2131,0.2131,0.2127,0.2126,0.2111,0.2113,0.2111,0.2104,0.2098,0.2103,0.2094,0.208,0.2093,0.2068,0.2065,0.2097,0.2105,0.211,0.2115,0.2143,0.2152,0.216,0,0,0,0,0,0,0.214,0.2129,0.2125,0.2121,0.2123,0.2112,0.2115,0.2111,0.2106,0.2105,0.2088,0.2085,0.2111,0.2101,0.2074,0.2132,0.2105,0.2109,0.2128,0.2137,0.2144,0.2176,0.2051,0,0,0,0,0,0.2143,0.2137,0.2134,0.2131,0.2134,0.2126,0.2126,0.2123,0.2118,0.2116,0.2106,0.211,0.2128,0.2127,0.2137,0.2148,0.2163,0.2177,0.2184,0.219,0.2219,0.2287,0.2303,0.2133,0.2133,0.2133,0,0,0.2144,0.2139,0.2135,0.2133,0.213,0.2134,0.2126,0.2131,0.2138,0.2114,0.212,0.2132,0.214,0.2165,0.2176,0.2156,0.2237,0.2196,0.2201,0.2227,0.2294,0.2311,0.2325,0.2136,0.2136,0.2135,0,0,0.2146,0.2142,0.214,0.2143,0.2148,0.2146,0.2152,0.2148,0.2154,0.2159,0.2164,0.2204,0.2191,0.2227,0.2239,0.2296,0.2279,0.2292,0.2343,0.2408,0.2423,0.2436,0.2428,0.2441,0.2288,0.2288,0.2288,0,0.2151,0.2141,0.2143,0.2145,0.2148,0.2154,0.2157,0.2167,0.2166,0.2188,0.2167,0.2231,0.2234,0.2306,0.2328,0.2314,0.2318,0.2299,0.2417,0.2431,0.2444,0.2433,0.2447,0.229,0.229,0.229,0.229,0,0.2149,0.2145,0.2147,0.2148,0.2157,0.2161,0.2178,0.2195,0.22,0.2219,0.2287,0.2307,0.2354,0.2366,0.2356,0.246,0.2419,0.242,0.239,0.2463,0.2447,0.246,0.2294,0.2293,0.2292,0.2292,0,0,0.2143,0.2143,0.2144,0.2143,0.2157,0.2162,0.2194,0.2231,0.2272,0.2296,0.2362,0.2417,0.2451,0.2472,0.2488,0.2546,0.262,0.2519,0.2521,0.2502,0.2711,0.2563,0.2562,0.2635,0.2638,0.2641,0.2645,0,0.2139,0.2136,0.2142,0.2147,0.2147,0.2172,0.2206,0.2249,0.2289,0.2358,0.2429,0.2496,0.2484,0.2521,0.2583,0.2628,0.2665,0.2616,0.2654,0.2654,0.2508,0.2578,0.2368,0.2345,0.2657,0.2659,0.2661,0,0.2131,0.2129,0.2127,0.2148,0.2154,0.2167,0.2232,0.2268,0.2377,0.2418,0.2512,0.2564,0.2675,0.2651,0.2762,0.2725,0.2727,0.2747,0.2747,0.2618,0.2534,0.2335,0.2356,0.2683,0.2681,0.2679,0.2678,0,0.2115,0.212,0.2115,0.2118,0.2148,0.2167,0.2199,0.229,0.2344,0.2477,0.2536,0.2659,0.2721,0.2788,0.2806,0.2798,0.2898,0.2888,0.2751,0.2737,0.2574,0.2539,0.2971,0.2971,0.2971,0.2971,0.2971,0,0.2101,0.2098,0.2106,0.2104,0.2125,0.216,0.2218,0.2277,0.239,0.2468,0.2575,0.265,0.2764,0.282,0.2839,0.2816,0.2918,0.278,0.2752,0.2571,0.2538,0.2855,0.2842,0.2971,0.2971,0.2971,0.2971,0,0.2081,0.2084,0.2079,0.2102,0.2114,0.2134,0.2208,0.2262,0.2371,0.248,0.2529,0.2662,0.2717,0.2776,0.2862,0.2825,0.2844,0.28,0.2538,0.2479,0.2626,0.2615,0.2675,0.2671,0.2667,0.2664,0.2661,0,0.2066,0.206,0.2068,0.207,0.2075,0.2112,0.2146,0.2245,0.2303,0.2468,0.2515,0.261,0.2654,0.2693,0.2647,0.2627,0.2722,0.2404,0.2372,0.2641,0.2608,0.2603,0.2597,0.2149,0.2143,0.2137,0.2133,0,0.2041,0.2043,0.2041,0.2045,0.2059,0.2082,0.2133,0.2171,0.2294,0.2372,0.2461,0.2518,0.2527,0.2409,0.2355,0.2318,0.2398,0.2287,0.2682,0.2245,0.2143,0.2111,0.2123,0.2084,0.2088,0.2092,0.2095,0.2097,0.2022,0.2015,0.2015,0.2013,0.2025,0.2037,0.2043,0.2079,0.2137,0.2194,0.2306,0.2286,0.2279,0.2087,0.1993,0.1899,0.2079,0.1995,0.2014,0.2039,0.1966,0.1862,0.1732,0.1735,0.1738,0.174,0.1742,0,0.1981,0.1989,0.1986,0.1972,0.1943,0.1991,0.2021,0.1973,0.1961,0.2009,0.2027,0.1831,0.173,0.1719,0.1509,0.1477,0.1485,0.1402,0.1421,0.1469,0.1513,0.1416,0.1035,0.1033,0.1031,0.1029,0,0,0.1963,0.1939,0.1931,0.1876,0.1879,0.1822,0.1821,0.1744,0.1724,0.164,0.1598,0.1675,0.1712,0.1382,0.1301,0.115,0.1309,0.1085,0.1654,0.1731,0.1772,0.1853,0.1757,0,0,0,0,0]},{"header":{"parameterUnit":"m.s-1","parameterCategory":2,"la1":30.2991,"la2":30.254,"lo1":-89.0895,"lo2":-89.0444,"dy":0.0017,"dx":0.0017,"nx":28,"ny":28,"refTime":"2024-07-04T03:00:00:Z","depth":"2","parameterNumber":3,"parameterNumberName":"V-component_of_CURRENTS"},"data":[0,0,0,0,0,0,0,0,0,0,0,0,0,0,0,0,0,0,0,0,0,0,0,0,0,0,0,0,0,0,0,0,0,0,0,0,0,0,0,0,0,0,0,0,0,0,0,0,0,0,0,0,0,0,0,0,0,0,0.0274,0.0274,0,0.0265,0.0265,0.0265,0.0257,0.0257,0.0257,0.0257,0.0235,0.0234,0.0233,0,0,0,0,0,0,0,0,0,0,0,0,0,0.0256,0.0256,0.0274,0.0274,0.0274,0.0265,0.0265,0.0265,0.0257,0.0257,0.0257,0.0257,0.0235,0.0234,0.0233,0,0,0,0,0,0,0,0,0,0,0,0,0,0.0257,0.0257,0.0274,0.0269,0.0269,0.0265,0.0265,0.0265,0.0257,0.0257,0.0257,0.0256,0.0235,0.0234,0.0233,0.0229,0,0,0.0231,0.023,0,0,0,0,0,0,0,0,0.0257,0.0257,0.027,0.027,0.0269,0.0262,0.025,0.0252,0.0257,0.0261,0.0257,0.0256,0.0243,0.0242,0.0239,0.0228,0.0227,0.0231,0.023,0.023,0.023,0,0,0,0,0,0,0,0.0257,0.0257,0.027,0.027,0.0269,0.0258,0.0258,0.0251,0.0252,0.026,0.026,0.026,0.0243,0.024,0.0239,0.0227,0.0231,0.023,0.023,0.0229,0.024,0.0241,0,0,0,0,0,0,0.0261,0.0258,0.027,0.027,0.0263,0.0258,0.0259,0.0264,0.0252,0.025,0.026,0.0259,0.0242,0.024,0.0238,0.0257,0.023,0.0229,0.0229,0.0239,0.024,0.0241,0,0,0,0,0,0,0.026,0.0262,0.0271,0.0263,0.0264,0.0259,0.0265,0.0264,0.0263,0.0252,0.025,0.0261,0.0241,0.0239,0.0237,0.0256,0.0229,0.0228,0.0238,0.0239,0.024,0.028,0,0,0,0,0,0,0.026,0.0262,0.0266,0.0264,0.0264,0.0274,0.0265,0.0264,0.0264,0.0263,0.0252,0.025,0.0241,0.0238,0.0236,0.0254,0.0227,0.0237,0.0239,0.024,0.0278,0.0283,0.0287,0,0,0,0,0,0.0259,0.0269,0.0267,0.0268,0.0271,0.0275,0.0274,0.0269,0.0264,0.0268,0.026,0.025,0.0246,0.0238,0.0235,0.0253,0.0236,0.0238,0.024,0.0276,0.0282,0.0287,0,0,0,0,0,0,0.0262,0.0269,0.0267,0.0278,0.0278,0.0274,0.0277,0.0272,0.0268,0.0268,0.0254,0.0251,0.0258,0.0249,0.024,0.0262,0.0242,0.0244,0.0271,0.0276,0.028,0.0305,0.0227,0,0,0,0,0,0.0265,0.0276,0.0276,0.0285,0.0287,0.0281,0.0281,0.028,0.0276,0.0275,0.0266,0.0262,0.0263,0.0263,0.026,0.0267,0.0266,0.0279,0.0284,0.0288,0.0306,0.0325,0.0333,0.0247,0.0247,0.0247,0,0,0.0268,0.0274,0.0279,0.0287,0.0287,0.0297,0.0282,0.0288,0.0297,0.0273,0.0281,0.0273,0.0268,0.0279,0.0282,0.0274,0.0307,0.029,0.0293,0.031,0.0328,0.0336,0.0344,0.0248,0.0248,0.0247,0,0,0.0283,0.0285,0.0301,0.0305,0.031,0.0309,0.0312,0.0311,0.0311,0.0315,0.0306,0.0314,0.0303,0.0315,0.0317,0.0344,0.0328,0.0337,0.0381,0.0398,0.0406,0.0413,0.0402,0.0408,0.0341,0.0341,0.0342,0,0.0286,0.0307,0.0304,0.032,0.033,0.0318,0.0337,0.0335,0.0332,0.0345,0.0323,0.0343,0.0328,0.0366,0.0371,0.0356,0.0351,0.036,0.0405,0.0412,0.0418,0.0406,0.0412,0.0344,0.0343,0.0343,0.0343,0,0.0313,0.033,0.034,0.0359,0.0367,0.0382,0.0383,0.0389,0.0384,0.0389,0.0417,0.0405,0.0425,0.0416,0.0397,0.0441,0.0416,0.0406,0.0393,0.0429,0.0414,0.0419,0.0347,0.0346,0.0345,0.0345,0,0,0.0325,0.0354,0.0359,0.038,0.0392,0.0406,0.0423,0.0448,0.0479,0.0469,0.0517,0.0509,0.0512,0.0516,0.0502,0.0511,0.0531,0.0476,0.0476,0.0468,0.055,0.0525,0.0528,0.0525,0.0527,0.0528,0.0514,0,0.035,0.0392,0.04,0.0441,0.0464,0.0466,0.0492,0.0512,0.0523,0.0563,0.0565,0.06,0.0548,0.0568,0.0569,0.0549,0.0549,0.0534,0.0515,0.0514,0.0491,0.0536,0.048,0.0463,0.0519,0.052,0.052,0,0.0378,0.0406,0.0451,0.0499,0.0511,0.0532,0.0586,0.0609,0.0653,0.0669,0.0702,0.0704,0.0727,0.0677,0.0663,0.0654,0.0608,0.058,0.0579,0.0553,0.0501,0.044,0.047,0.0529,0.0528,0.0527,0.0527,0,0.04,0.0445,0.0486,0.05,0.0546,0.0572,0.06,0.0645,0.0696,0.075,0.0802,0.081,0.0834,0.0792,0.0716,0.0698,0.0689,0.0658,0.0593,0.0588,0.0538,0.0528,0.0655,0.0655,0.0655,0.0655,0.0655,0,0.0429,0.0463,0.05,0.0525,0.0589,0.0607,0.0685,0.0714,0.0792,0.0884,0.0868,0.0937,0.0866,0.0846,0.0761,0.0693,0.0723,0.0618,0.0598,0.0547,0.0538,0.0596,0.0589,0.0654,0.0654,0.0655,0.0655,0,0.0448,0.0471,0.0523,0.0578,0.0601,0.0648,0.0745,0.0813,0.0869,0.0992,0.1023,0.1044,0.1013,0.092,0.0846,0.0762,0.0692,0.0654,0.0583,0.0556,0.0564,0.056,0.0599,0.0598,0.0598,0.0597,0.0597,0,0.0462,0.0489,0.0561,0.0604,0.0631,0.0704,0.0773,0.0847,0.0936,0.1065,0.114,0.114,0.1161,0.1024,0.085,0.0704,0.0691,0.0565,0.0532,0.059,0.0566,0.0562,0.0559,0.0463,0.0462,0.0461,0.046,0,0.0488,0.0511,0.0557,0.0647,0.0719,0.0812,0.0914,0.1003,0.1117,0.1227,0.1351,0.1375,0.1221,0.1044,0.0816,0.0701,0.0585,0.0538,0.0637,0.0491,0.0463,0.0439,0.044,0.0449,0.045,0.0451,0.0452,0.0452,0.0507,0.0544,0.061,0.0698,0.0786,0.0917,0.1024,0.1137,0.1297,0.145,0.1463,0.1471,0.1255,0.0939,0.0733,0.0502,0.0545,0.045,0.0453,0.0458,0.045,0.0423,0.0398,0.0399,0.04,0.04,0.0401,0,0.0529,0.0584,0.0662,0.0776,0.0875,0.0932,0.1124,0.1225,0.1412,0.1503,0.158,0.1357,0.1143,0.09,0.055,0.0376,0.034,0.0302,0.0289,0.0301,0.031,0.0295,0.0202,0.0202,0.0201,0.02,0,0,0.0544,0.0616,0.066,0.0822,0.092,0.1085,0.1212,0.1358,0.1457,0.1545,0.1535,0.1469,0.12,0.0904,0.0626,0.0424,0.0411,0.0371,0.0544,0.0572,0.0584,0.04,0.0389,0,0,0,0,0]}],[{"header":{"parameterUnit":"m.s-1","parameterCategory":2,"la1":30.2991,"la2":30.254,"lo1":-89.0895,"lo2":-89.0444,"dy":0.0017,"dx":0.0017,"nx":28,"ny":28,"refTime":"2024-07-04T03:00:00:Z","depth":"4","parameterNumber":2,"parameterNumberName":"U-component_of_CURRENTS"},"data":[0,0,0,0,0,0,0,0,0,0,0,0,0,0,0,0,0,0,0,0,0,0,0,0,0,0,0,0,0,0,0,0,0,0,0,0,0,0,0,0,0,0,0,0,0,0,0,0,0,0,0,0,0,0,0,0,0,0,0.1157,0.1157,0,0.1172,0.1172,0.1172,0.1204,0.1205,0.1206,0.1206,0.125,0.125,0.1251,0,0,0,0,0,0,0,0,0,0,0,0,0,0.1147,0.1147,0.1157,0.1157,0.1157,0.1172,0.1172,0.1172,0.1204,0.1205,0.1206,0.1207,0.125,0.125,0.1251,0,0,0,0,0,0,0,0,0,0,0,0,0,0.1154,0.1147,0.1156,0.1177,0.1179,0.1172,0.1172,0.1172,0.1204,0.1205,0.1206,0.1207,0.125,0.125,0.1251,0.1229,0,0,0.1252,0.1253,0,0,0,0,0,0,0,0,0.1153,0.1154,0.1173,0.1175,0.1178,0.1189,0.1185,0.1193,0.1203,0.1192,0.1206,0.1208,0.1233,0.1235,0.1231,0.1231,0.1233,0.1253,0.1253,0.1253,0.1253,0,0,0,0,0,0,0,0.1153,0.1153,0.116,0.1174,0.1176,0.1183,0.1185,0.1186,0.1204,0.1193,0.1196,0.1201,0.1234,0.1231,0.1233,0.1234,0.1253,0.1253,0.1253,0.1254,0.1301,0.1302,0,0,0,0,0,0,0.1154,0.1153,0.116,0.1161,0.1171,0.1182,0.1184,0.1182,0.1203,0.1208,0.12,0.1202,0.1229,0.1232,0.1234,0.1304,0.1253,0.1254,0.1254,0.13,0.1302,0.1303,0,0,0,0,0,0,0.1154,0.1154,0.1159,0.116,0.1161,0.1181,0.1179,0.1182,0.1211,0.1208,0.1214,0.1229,0.123,0.1234,0.1264,0.1302,0.1254,0.1254,0.1299,0.1301,0.1302,0.1382,0,0,0,0,0,0,0.1153,0.1154,0.1167,0.1159,0.1161,0.1177,0.1178,0.1182,0.1211,0.1216,0.1235,0.1238,0.1231,0.1263,0.1265,0.1302,0.1255,0.1298,0.13,0.1302,0.1378,0.1386,0.1393,0,0,0,0,0,0.1153,0.1161,0.1167,0.117,0.1174,0.1178,0.118,0.1197,0.1212,0.1227,0.1243,0.1239,0.1275,0.1264,0.1266,0.1305,0.1297,0.1299,0.1302,0.1375,0.1385,0.1393,0,0,0,0,0,0,0.1166,0.1165,0.1172,0.1181,0.1191,0.1185,0.1205,0.1214,0.1236,0.1251,0.1249,0.1253,0.13,0.1282,0.1271,0.1321,0.1286,0.1289,0.1342,0.1351,0.1358,0.1364,0.1255,0,0,0,0,0,0.1173,0.1181,0.1182,0.1194,0.1201,0.1209,0.122,0.1231,0.1242,0.1255,0.1269,0.1283,0.1302,0.1312,0.1324,0.1344,0.1343,0.1369,0.1376,0.1382,0.1387,0.1417,0.1428,0.1309,0.1309,0.1309,0,0,0.1182,0.1184,0.119,0.1198,0.1208,0.122,0.1219,0.1244,0.1261,0.1255,0.1296,0.1316,0.1315,0.1349,0.1367,0.1343,0.1417,0.1385,0.1391,0.1392,0.1421,0.1432,0.1443,0.1311,0.1311,0.131,0,0,0.1192,0.1207,0.1215,0.1226,0.1248,0.125,0.1265,0.128,0.1299,0.1329,0.1341,0.138,0.1396,0.1409,0.1414,0.1462,0.1462,0.1473,0.151,0.154,0.155,0.1559,0.1583,0.1594,0.1468,0.1468,0.1468,0,0.1208,0.1211,0.122,0.1233,0.1244,0.1268,0.1279,0.1299,0.1326,0.1342,0.1354,0.1416,0.1421,0.1466,0.1489,0.1481,0.1499,0.148,0.1551,0.156,0.1568,0.159,0.1601,0.1472,0.1472,0.1471,0.1471,0,0.1211,0.123,0.124,0.126,0.1273,0.1293,0.1313,0.1344,0.1374,0.1391,0.1458,0.1481,0.1516,0.1531,0.1527,0.1592,0.1588,0.1567,0.1533,0.1585,0.1604,0.1614,0.1478,0.1477,0.1475,0.1474,0,0,0.1202,0.1235,0.1242,0.1255,0.1289,0.1296,0.1334,0.1363,0.1402,0.145,0.1493,0.1552,0.1589,0.1597,0.1617,0.1644,0.1721,0.1638,0.1638,0.1669,0.1799,0.163,0.1624,0.1725,0.1727,0.1728,0.1795,0,0.1205,0.1226,0.1241,0.127,0.128,0.1314,0.1342,0.1379,0.1428,0.148,0.1527,0.1589,0.1607,0.165,0.1686,0.1716,0.1749,0.1705,0.1737,0.1738,0.1587,0.163,0.1734,0.1802,0.1804,0.1805,0.1807,0,0.1194,0.1211,0.1233,0.1268,0.1277,0.1308,0.1363,0.1398,0.1474,0.1511,0.1591,0.1637,0.1715,0.171,0.1805,0.1785,0.1805,0.1818,0.182,0.1637,0.1585,0.1735,0.1824,0.1822,0.1821,0.182,0.1819,0,0.1159,0.1201,0.1217,0.1232,0.1279,0.1308,0.1348,0.1419,0.1451,0.1557,0.1605,0.1696,0.1759,0.1808,0.1848,0.1846,0.1921,0.191,0.1777,0.1766,0.1866,0.1855,0.1966,0.1966,0.1966,0.1966,0.1965,0,0.1133,0.1153,0.1216,0.1226,0.1259,0.1306,0.1362,0.1415,0.1494,0.1535,0.1644,0.1694,0.1792,0.1842,0.1865,0.1843,0.194,0.179,0.177,0.1898,0.189,0.1873,0.1862,0.1968,0.1967,0.1967,0.1967,0,0.1084,0.1126,0.1152,0.1218,0.1244,0.1276,0.1356,0.139,0.1496,0.1556,0.1594,0.1712,0.1783,0.1843,0.1908,0.185,0.1846,0.1809,0.1945,0.1931,0.1676,0.1668,0.1683,0.1677,0.1673,0.1669,0.1666,0,0.1056,0.1066,0.1139,0.116,0.12,0.1258,0.1285,0.1376,0.1412,0.1548,0.156,0.1672,0.1733,0.1714,0.1772,0.1784,0.1758,0.174,0.1708,0.1666,0.1647,0.1646,0.1645,0.1658,0.1657,0.1656,0.1655,0,0.1001,0.1041,0.1063,0.1109,0.1149,0.117,0.1233,0.1242,0.134,0.1448,0.1499,0.153,0.159,0.1629,0.1634,0.164,0.1741,0.1692,0.1702,0.1672,0.1637,0.1622,0.1626,0.1639,0.1641,0.1642,0.1643,0,0.0967,0.0969,0.1009,0.1038,0.108,0.1075,0.1112,0.1151,0.1192,0.1344,0.135,0.1472,0.1577,0.1553,0.1558,0.1541,0.1526,0.1469,0.1491,0.1509,0.1411,0.1339,0.1235,0,0,0,0,0,0.0925,0.0912,0.0931,0.0942,0.0979,0.1002,0.1064,0.1103,0.1202,0.1201,0.1273,0.1322,0.1345,0.1405,0.1353,0.1456,0.1514,0.1383,0.1456,0.1549,0.1568,0.1464,0,0,0,0,0,0,0.0894,0.0906,0.09,0.0859,0.0853,0.0868,0.0904,0.0967,0.098,0.1102,0.114,0.1222,0.1282,0.1371,0.1329,0.1337,0.1346,0.1449,0.1444,0.1539,0.1556,0.1571,0.147,0,0,0,0,0]},{"header":{"parameterUnit":"m.s-1","parameterCategory":2,"la1":30.2991,"la2":30.254,"lo1":-89.0895,"lo2":-89.0444,"dy":0.0017,"dx":0.0017,"nx":28,"ny":28,"refTime":"2024-07-04T03:00:00:Z","depth":"4","parameterNumber":3,"parameterNumberName":"V-component_of_CURRENTS"},"data":[0,0,0,0,0,0,0,0,0,0,0,0,0,0,0,0,0,0,0,0,0,0,0,0,0,0,0,0,0,0,0,0,0,0,0,0,0,0,0,0,0,0,0,0,0,0,0,0,0,0,0,0,0,0,0,0,0,0,0.0071,0.0071,0,0.0063,0.0063,0.0063,0.0061,0.0061,0.0061,0.0061,0.0054,0.0054,0.0054,0,0,0,0,0,0,0,0,0,0,0,0,0,0.0064,0.0064,0.0071,0.0071,0.0071,0.0063,0.0063,0.0063,0.0061,0.0061,0.0061,0.0061,0.0054,0.0054,0.0054,0,0,0,0,0,0,0,0,0,0,0,0,0,0.0062,0.0064,0.0071,0.0069,0.0068,0.0063,0.0063,0.0063,0.0061,0.0061,0.0061,0.0061,0.0054,0.0054,0.0053,0.005,0,0,0.0053,0.0052,0,0,0,0,0,0,0,0,0.0063,0.0063,0.0069,0.0069,0.0068,0.0063,0.0058,0.0059,0.0061,0.0064,0.0061,0.0061,0.0057,0.0056,0.0055,0.005,0.005,0.0052,0.0052,0.0052,0.0052,0,0,0,0,0,0,0,0.0063,0.0063,0.0068,0.0069,0.0069,0.0061,0.0061,0.0058,0.006,0.0063,0.0063,0.0062,0.0057,0.0055,0.0055,0.005,0.0052,0.0052,0.0052,0.0052,0.0061,0.0062,0,0,0,0,0,0,0.0065,0.0063,0.0068,0.0068,0.0065,0.0061,0.0061,0.0065,0.006,0.006,0.0062,0.0062,0.0056,0.0055,0.0054,0.0077,0.0052,0.0052,0.0052,0.0061,0.0062,0.0062,0,0,0,0,0,0,0.0065,0.0065,0.0068,0.0065,0.0065,0.0061,0.0065,0.0064,0.0066,0.0059,0.0059,0.0065,0.0056,0.0055,0.0057,0.0076,0.0052,0.0051,0.006,0.0061,0.0062,0.0105,0,0,0,0,0,0,0.0064,0.0065,0.0069,0.0065,0.0065,0.0071,0.0065,0.0064,0.0065,0.0065,0.0061,0.0061,0.0056,0.0058,0.0057,0.0075,0.0051,0.006,0.0061,0.0062,0.0103,0.0108,0.0111,0,0,0,0,0,0.0064,0.0071,0.0069,0.007,0.007,0.0071,0.0071,0.0068,0.0066,0.0069,0.0067,0.0061,0.0063,0.0058,0.0057,0.0075,0.0059,0.0061,0.0061,0.0102,0.0107,0.0111,0,0,0,0,0,0,0.0068,0.0071,0.0069,0.0076,0.0075,0.0071,0.0074,0.0071,0.0071,0.0073,0.0064,0.0064,0.0074,0.0065,0.006,0.0079,0.0061,0.0062,0.0092,0.0097,0.01,0.0113,0.0051,0,0,0,0,0,0.0071,0.0079,0.0076,0.0082,0.0083,0.0079,0.0079,0.0078,0.0077,0.0077,0.0074,0.0072,0.0076,0.0079,0.0077,0.0086,0.0076,0.0097,0.0101,0.0104,0.0113,0.0111,0.0116,0.0065,0.0065,0.0065,0,0,0.0073,0.0076,0.008,0.0084,0.0083,0.0092,0.0079,0.0084,0.0094,0.0077,0.0089,0.0084,0.008,0.0093,0.0097,0.0089,0.0112,0.0105,0.0108,0.0116,0.0113,0.0118,0.0122,0.0066,0.0066,0.0066,0,0,0.0085,0.0086,0.0097,0.01,0.0104,0.0104,0.0106,0.0105,0.0108,0.0114,0.0109,0.0117,0.0114,0.0122,0.0124,0.0147,0.013,0.0144,0.0178,0.0176,0.018,0.0184,0.0174,0.0176,0.0148,0.0149,0.0149,0,0.0087,0.0103,0.0099,0.0111,0.012,0.0111,0.0127,0.0128,0.0128,0.0139,0.0124,0.0139,0.0131,0.0161,0.0167,0.0158,0.0148,0.0162,0.0182,0.0185,0.0188,0.0177,0.0179,0.0151,0.015,0.015,0.015,0,0.0107,0.0121,0.0128,0.0145,0.0152,0.0164,0.0167,0.0175,0.0174,0.0178,0.02,0.019,0.0205,0.0201,0.019,0.0216,0.0199,0.0185,0.0172,0.0196,0.0182,0.0184,0.0154,0.0153,0.0152,0.0152,0,0,0.0112,0.0138,0.0142,0.0161,0.0173,0.0184,0.0203,0.0224,0.0251,0.0243,0.0273,0.0275,0.0275,0.0277,0.0268,0.0263,0.027,0.0236,0.0234,0.0229,0.026,0.023,0.0228,0.0258,0.0259,0.0259,0.024,0,0.013,0.0164,0.0172,0.021,0.0228,0.0235,0.026,0.0278,0.0288,0.0313,0.0308,0.0332,0.0303,0.0317,0.0309,0.0281,0.0277,0.0276,0.0235,0.0233,0.0207,0.023,0.0261,0.0241,0.0242,0.0242,0.0242,0,0.0147,0.0172,0.021,0.0256,0.0266,0.029,0.0338,0.0361,0.0389,0.0398,0.0417,0.041,0.0416,0.038,0.0352,0.0352,0.0314,0.0284,0.0282,0.0242,0.0207,0.0212,0.0244,0.0244,0.0244,0.0244,0.0244,0,0.0157,0.02,0.0235,0.0248,0.0294,0.0322,0.0353,0.0392,0.043,0.0461,0.0488,0.0484,0.0492,0.0445,0.0378,0.0369,0.033,0.031,0.025,0.0247,0.0259,0.0256,0.0293,0.0293,0.0293,0.0293,0.0293,0,0.0174,0.0204,0.0247,0.0268,0.0328,0.0352,0.0422,0.0449,0.0501,0.0557,0.0543,0.0572,0.0508,0.0474,0.0402,0.0329,0.0351,0.0263,0.0245,0.0277,0.0275,0.026,0.0256,0.0292,0.0293,0.0293,0.0293,0,0.0177,0.0203,0.025,0.0309,0.0334,0.0379,0.047,0.0523,0.0566,0.0634,0.0648,0.0645,0.0601,0.0523,0.0442,0.0371,0.0295,0.0263,0.0302,0.0285,0.0207,0.0206,0.0204,0.0203,0.0202,0.0201,0.02,0,0.0182,0.0205,0.0278,0.0318,0.035,0.0424,0.0483,0.0548,0.0606,0.0676,0.0707,0.0691,0.0671,0.0542,0.0444,0.031,0.0284,0.024,0.0225,0.0219,0.0201,0.0201,0.0201,0.0199,0.0199,0.0198,0.0198,0,0.0193,0.0217,0.0258,0.034,0.0407,0.0487,0.0573,0.0619,0.0698,0.0733,0.0764,0.0709,0.0656,0.0543,0.0439,0.0338,0.0264,0.023,0.0231,0.0217,0.0212,0.0196,0.0197,0.0195,0.0195,0.0196,0.0196,0,0.0202,0.023,0.0288,0.0362,0.0446,0.0532,0.0579,0.0653,0.0714,0.0784,0.0785,0.0735,0.0707,0.0557,0.0458,0.0358,0.0328,0.0282,0.028,0.0282,0.0299,0.0305,0.031,0,0,0,0,0,0.021,0.0245,0.031,0.0397,0.0479,0.0535,0.0633,0.0676,0.0744,0.0771,0.0785,0.0734,0.0607,0.0553,0.045,0.0423,0.0297,0.0294,0.0239,0.0177,0.0181,0.0183,0,0,0,0,0,0,0.0218,0.027,0.0305,0.0411,0.0477,0.0578,0.0644,0.0692,0.071,0.0755,0.0691,0.0683,0.0558,0.0664,0.044,0.0411,0.0355,0.0244,0.0241,0.0175,0.0178,0.0181,0.0185,0,0,0,0,0]}]]